#timestamp,LO_Frequency,Hit 
1501462815.5,286047002.7,N
1501462835.3,286047002.0,N
1501462855.1,286047001.3,N
1501462875.9,286047002.3,N
1501462895.7,286047001.3,N
1501462915.5,286047005.9,N
1501462935.4,286047004.2,N
1501462955.2,286047002.9,N
1501462975.0,286047004.9,N
1501462975.9,286047004.9,N
1501462995.7,286047005.5,N
1501463015.6,286047001.3,N
1501463035.4,286047002.4,N
1501463055.2,286047003.3,N
1501463075.1,286047007.4,N
1501463076.0,286047007.4,N
1501463095.8,286047006.1,N
1501463115.6,286047008.0,N
1501463135.5,286047009.7,N
1501463155.3,286047014.0,N
1501463175.1,286047013.7,N
1501463195.9,286047013.0,N
1501463215.7,286047012.8,N
1501463235.5,286047013.4,N
1501463255.4,286047014.7,N
1501463275.2,286047015.6,N
1501463295.0,286047013.3,N
1501463295.9,286047013.3,N
1501463315.8,286047009.4,N
1501463335.6,286047012.2,N
1501463355.4,286047011.9,N
1501463375.2,286047011.8,N
1501463395.1,286047012.5,N
1501463396.0,286047012.5,N
1501463415.8,286047012.7,N
1501463435.6,286047014.3,N
1501463455.9,286047016.2,N
1501463475.7,286047018.2,N
1501463495.5,286047015.7,N
1501463515.4,286047015.3,N
1501463535.2,286047016.8,N
1501463555.0,286047015.6,N
1501463555.9,286047015.6,N
1501463575.8,286047013.3,N
1501463595.6,286047017.2,N
1501463615.4,286047018.3,N
1501463635.2,286047016.3,N
1501463655.1,286047018.3,N
1501463656.0,286047018.3,N
1501463675.8,286047017.9,N
1501463695.6,286047020.9,N
1501463715.5,286047024.8,N
1501463735.3,286047028.1,N
1501463755.1,286047027.3,N
1501463775.9,286047029.8,N
1501463795.3,286047031.1,N
1501463815.1,286047029.3,N
1501463835.4,286047027.0,N
1501463855.2,286047028.4,N
1501463875.0,286047028.7,N
1501463875.9,286047028.7,N
1501463895.8,286047031.4,N
1501463915.6,286047032.7,Y
1501463935.5,286047016.4,N
1501463955.3,286047018.4,N
1501463975.9,286047018.6,N
1501463995.7,286047016.7,N
1501464015.5,286047016.2,N
1501464035.4,286047018.2,N
1501464055.2,286047016.1,N
1501464075.0,286047014.6,N
1501464075.9,286047014.6,N
1501464095.8,286047014.6,N
1501464115.6,286047012.8,N
1501464135.4,286047015.1,N
1501464155.3,286047015.3,N
1501464175.1,286047015.3,N
1501464176.0,286047015.3,N
1501464195.8,286047016.9,N
1501464215.7,286047018.1,N
1501464235.5,286047018.6,N
1501464255.3,286047017.3,N
1501464275.2,286047017.8,N
1501464295.9,286047020.2,N
1501464315.7,286047019.7,N
1501464335.5,286047018.6,N
1501464355.4,286047017.9,N
1501464375.2,286047018.2,N
1501464395.0,286047018.2,N
1501464395.9,286047018.2,N
1501464415.8,286047018.4,N
1501464435.6,286047019.6,N
1501464455.4,286047021.7,N
1501464475.3,286047019.3,N
1501464495.1,286047019.7,N
1501464496.0,286047019.7,N
1501464515.8,286047023.4,N
1501464535.7,286047019.4,N
1501464555.5,286047020.1,N
1501464575.3,286047018.9,N
1501464595.2,286047023.6,N
1501464615.9,286047020.8,N
1501464635.7,286047019.4,N
1501464655.5,286047019.3,N
1501464675.4,286047019.5,N
1501464695.2,286047019.2,N
1501464715.0,286047023.2,N
1501464715.9,286047023.2,N
1501464735.8,286047020.7,N
1501464755.6,286047023.4,N
1501464775.4,286047022.9,N
1501464795.3,286047022.5,N
1501464815.1,286047020.9,N
1501464816.0,286047020.9,N
1501464835.8,286047019.8,N
1501464855.7,286047021.5,N
1501464875.5,286047023.1,N
1501464895.3,286047022.9,N
1501464915.1,286047020.8,N
1501464935.9,286047023.6,N
1501464955.7,286047024.6,N
1501464975.5,286047022.1,N
1501464995.4,286047023.4,N
1501465015.2,286047023.4,N
1501465035.0,286047022.4,N
1501465035.9,286047022.4,N
1501465055.8,286047021.3,N
1501465075.6,286047020.9,N
1501465095.4,286047020.2,N
1501465115.3,286047019.8,N
1501465135.1,286047017.7,N
1501465136.0,286047017.7,N
1501465155.8,286047017.9,N
1501465175.7,286047020.1,N
1501465195.5,286047023.1,N
1501465215.3,286047022.5,N
1501465235.2,286047023.3,N
1501465255.9,286047020.5,N
1501465275.7,286047021.4,N
1501465295.5,286047023.5,N
1501465315.4,286047020.6,N
1501465335.2,286047023.3,N
1501465355.0,286047020.6,N
1501465355.9,286047020.6,N
1501465375.8,286047022.2,N
1501465395.6,286047025.1,N
1501465415.4,286047020.9,N
1501465435.3,286047021.8,N
1501465455.1,286047019.4,N
1501465475.8,286047020.5,N
1501465495.7,286047020.7,N
1501465515.5,286047022.0,N
1501465535.3,286047019.6,N
1501465555.2,286047019.7,N
1501465575.9,286047025.0,N
1501465595.7,286047024.7,N
1501465615.6,286047025.8,N
1501465635.4,286047028.1,N
1501465655.2,286047023.7,N
1501465675.0,286047022.6,N
1501465676.0,286047022.6,N
1501465695.8,286047023.9,N
1501465715.6,286047022.7,N
1501465735.4,286047024.8,N
1501465755.3,286047022.2,N
1501465775.1,286047023.2,N
1501465795.8,286047024.6,N
1501465815.7,286047024.7,N
1501465835.5,286047022.2,N
1501465855.3,286047025.1,N
1501465875.2,286047024.7,N
1501465895.9,286047023.7,N
1501465915.7,286047023.9,N
1501465935.6,286047024.1,N
1501465955.4,286047025.2,N
1501465975.2,286047025.2,N
1501465995.1,286047024.8,N
1501465996.0,286047024.8,N
1501466015.8,286047020.9,N
1501466035.6,286047022.8,N
1501466055.5,286047023.6,N
1501466075.3,286047021.4,N
1501466095.1,286047020.6,N
1501466115.9,286047022.7,N
1501466135.7,286047024.6,N
1501466155.5,286047022.1,N
1501466175.3,286047025.1,N
1501466195.2,286047022.9,N
1501466215.0,286047022.5,N
1501466215.9,286047022.5,N
1501466235.7,286047026.6,N
1501466255.6,286047025.0,N
1501466275.4,286047022.8,N
1501466295.2,286047021.3,N
1501466315.1,286047020.9,N
1501466316.0,286047020.9,N
1501466335.8,286047020.8,N
1501466355.6,286047022.9,N
1501466375.5,286047024.9,N
1501466395.3,286047022.3,N
